^^
Station Historical Data
Daily Summary for June 30, 2017 Units:  Metric    English   Both
« Previous Day
Next Day »
Daily Weekly Monthly Yearly Custom
  High: Low: Average:
Temperature: 20.6 °C 7 °C 12.6 °C
Dew Point: 4.7 °C -2.3 °C 0.6 °C
Humidity: 69% 25% 45%
Wind Speed: 24.1km/h 0km/h 4km/h
Wind Gust: 25.7km/h - -
Wind- - SW
Pressure: 1021.6 hPa 1015.5 hPa -
Precipitation: 0 mm    
Historical Graphs
 
 
Tabular Data for June 30, 2017
Time Temperature Dew Point Pressure Wind Wind Speed Wind Gust Humidity Rainfall Rate (Hourly) solar Conditions
00:04 15.8 °C 0 °C 1016.1 hPa Calm     34% 0 mm 0.0 W/m2
00:09 15.6 °C -0.2 °C 1016.1 hPa Calm     34% 0 mm 0.0 W/m2
00:15 15.3 °C -0.1 °C 1016.1 hPa Calm     35% 0 mm 0.0 W/m2
00:20 14.9 °C -0.4 °C 1016.5 hPa Calm     35% 0 mm 0.0 W/m2
00:25 14.6 °C -0.3 °C 1016.5 hPa Calm     36% 0 mm 0.0 W/m2
00:30 14.3 °C -0.2 °C 1016.5 hPa Calm     37% 0 mm 0.0 W/m2
00:35 14.3 °C -0.2 °C 1016.5 hPa Calm     37% 0 mm 0.0 W/m2
00:40 14.3 °C -0.2 °C 1016.5 hPa Calm     37% 0 mm 0.0 W/m2
00:46 14.1 °C -0.4 °C 1016.5 hPa Calm     37% 0 mm 0.0 W/m2
00:51 13.9 °C -0.6 °C 1016.5 hPa Calm     37% 0 mm 0.0 W/m2
00:56 13.7 °C -0.7 °C 1016.8 hPa Calm     37% 0 mm 0.0 W/m2
01:01 13.6 °C -0.5 °C 1016.5 hPa Calm     38% 0 mm 0.0 W/m2
01:06 13.6 °C -0.5 °C 1016.5 hPa Calm     38% 0 mm 0.0 W/m2
01:11 13.4 °C -1 °C 1016.5 hPa Calm     37% 0 mm 0.0 W/m2
01:16 13.2 °C -0.8 °C 1016.5 hPa Calm     38% 0 mm 0.0 W/m2
01:21 13 °C -0.6 °C 1016.5 hPa Calm     39% 0 mm 0.0 W/m2
01:26 12.9 °C -0.7 °C 1016.5 hPa Calm     39% 0 mm 0.0 W/m2
01:31 12.6 °C -1 °C 1016.5 hPa Calm     39% 0 mm 0.0 W/m2
01:37 12.6 °C -0.6 °C 1016.5 hPa Calm     40% 0 mm 0.0 W/m2
01:42 12.6 °C -1 °C 1016.1 hPa Calm     39% 0 mm 0.0 W/m2
01:47 12.4 °C -0.8 °C 1016.5 hPa Calm     40% 0 mm 0.0 W/m2
01:52 12.3 °C -0.9 °C 1016.5 hPa Calm     40% 0 mm 0.0 W/m2
01:57 12.2 °C -0.7 °C 1016.5 hPa Calm     41% 0 mm 0.0 W/m2
02:03 12.4 °C -0.8 °C 1016.1 hPa Calm     40% 0 mm 0.0 W/m2
02:08 12.7 °C -0.6 °C 1016.1 hPa Calm     40% 0 mm 0.0 W/m2
02:13 12.8 °C -0.8 °C 1016.1 hPa Calm     39% 0 mm 0.0 W/m2
02:18 12.6 °C -1 °C 1016.1 hPa Calm     39% 0 mm 0.0 W/m2
02:23 12.3 °C -0.9 °C 1016.1 hPa Calm     40% 0 mm 0.0 W/m2
02:29 12.2 °C -0.7 °C 1016.1 hPa Calm     41% 0 mm 0.0 W/m2
02:35 12.2 °C -0.7 °C 1016.1 hPa Calm     41% 0 mm 0.0 W/m2
02:40 12.3 °C -0.6 °C 1016.1 hPa Calm     41% 0 mm 0.0 W/m2
02:45 12.6 °C -0.6 °C 1016.1 hPa Calm     40% 0 mm 0.0 W/m2
02:50 13.1 °C -0.2 °C 1016.1 hPa Calm     40% 0 mm 0.0 W/m2
02:55 13.2 °C -0.5 °C 1016.1 hPa Calm     39% 0 mm 0.0 W/m2
03:00 12.8 °C -1.2 °C 1015.8 hPa Calm     38% 0 mm 0.0 W/m2
03:06 12.2 °C -1 °C 1015.8 hPa Calm     40% 0 mm 0.0 W/m2
03:11 12 °C -0.9 °C 1015.8 hPa Calm     41% 0 mm 0.0 W/m2
03:16 12.6 °C -0.6 °C 1015.8 hPa Calm     40% 0 mm 0.0 W/m2
03:22 12.9 °C -0.7 °C 1015.5 hPa Calm     39% 0 mm 0.0 W/m2
03:27 13 °C -0.6 °C 1015.5 hPa Calm     39% 0 mm 0.0 W/m2
03:32 13.3 °C -0.7 °C 1015.8 hPa Calm     38% 0 mm 0.0 W/m2
03:37 13.6 °C -0.5 °C 1015.8 hPa Calm     38% 0 mm 0.0 W/m2
03:42 13.8 °C -0.6 °C 1015.8 hPa Calm     37% 0 mm 0.0 W/m2
03:48 13.8 °C -0.6 °C 1015.8 hPa Calm     37% 0 mm 0.0 W/m2
03:53 13.9 °C -0.6 °C 1015.8 hPa Calm     37% 0 mm 0.0 W/m2
04:03 13.5 °C -0.9 °C 1015.8 hPa Calm     37% 0 mm 0.0 W/m2
04:08 12.9 °C -1.1 °C 1015.8 hPa Calm     38% 0 mm 0.0 W/m2
04:14 12.7 °C -0.9 °C 1015.8 hPa Calm     39% 0 mm 0.0 W/m2
04:19 12.3 °C -0.9 °C 1015.8 hPa Calm     40% 0 mm 0.0 W/m2
04:24 12.1 °C -1.1 °C 1015.8 hPa Calm     40% 0 mm 0.0 W/m2
04:29 11.7 °C -1.1 °C 1015.8 hPa Calm     41% 0 mm 0.0 W/m2
04:34 11.3 °C -1.2 °C 1015.8 hPa Calm     42% 0 mm 0.0 W/m2
04:39 11.2 °C -0.9 °C 1015.8 hPa Calm     43% 0 mm 0.0 W/m2
04:45 10.9 °C -0.9 °C 1015.8 hPa Calm     44% 0 mm 0.0 W/m2
04:55 10.7 °C -1.1 °C 1015.8 hPa Calm     44% 0 mm 0.0 W/m2
05:00 10.6 °C -1.2 °C 1015.8 hPa Calm     44% 0 mm 0.0 W/m2
05:05 10.8 °C -1.3 °C 1015.5 hPa Calm     43% 0 mm 0.0 W/m2
05:10 10.9 °C -0.9 °C 1015.5 hPa Calm     44% 0 mm 0.0 W/m2
05:15 10.9 °C -1.2 °C 1015.8 hPa Calm     43% 0 mm 0.0 W/m2
05:26 10.9 °C -1.2 °C 1015.8 hPa Calm     43% 0 mm 0.0 W/m2
05:31 10.7 °C -1.4 °C 1016.1 hPa Calm     43% 0 mm 0.0 W/m2
05:36 10.6 °C -1.5 °C 1016.1 hPa Calm     43% 0 mm 0.0 W/m2
05:46 10.2 °C -1.5 °C 1016.5 hPa Calm     44% 0 mm 0.0 W/m2
05:51 9.8 °C -1.3 °C 1016.5 hPa Calm     46% 0 mm 0.0 W/m2
05:56 9.6 °C -1.5 °C 1016.5 hPa Calm     46% 0 mm 0.0 W/m2
06:01 9.3 °C -2 °C 1016.8 hPa Calm     45% 0 mm 0.0 W/m2
06:07 8.8 °C -1.9 °C 1016.8 hPa Calm     47% 0 mm 0.0 W/m2
06:11 8.6 °C -1.8 °C 1016.8 hPa Calm     48% 0 mm 0.0 W/m2
06:17 8.6 °C -1.5 °C 1016.8 hPa Calm     49% 0 mm 0.0 W/m2
06:29 8.4 °C -1.4 °C 1017.2 hPa Calm     50% 0 mm 0.0 W/m2
06:38 7.9 °C -1.9 °C 1017.2 hPa Calm     50% 0 mm 0.0 W/m2
06:44 7.9 °C -1.9 °C 1017.2 hPa Calm     50% 0 mm 0.0 W/m2
06:48 7.8 °C -2 °C 1017.2 hPa Calm     50% 0 mm 7.0 W/m2
06:55 7.7 °C -2.1 °C 1017.5 hPa Calm     50% 0 mm 11.0 W/m2
07:10 7.5 °C -2.3 °C 1017.5 hPa Calm     50% 0 mm 19.0 W/m2
07:16 7.5 °C -2 °C 1017.8 hPa Calm     51% 0 mm 23.0 W/m2
07:23 7.8 °C -2 °C 1017.8 hPa Calm     50% 0 mm 42.0 W/m2
07:38 7.9 °C -1.9 °C 1018.5 hPa Calm     50% 0 mm 91.0 W/m2
07:48 8.6 °C -1.2 °C 1018.5 hPa Calm     50% 0 mm 123.0 W/m2
07:57 10.1 °C 2 °C 1018.5 hPa NNE 6.4 km/h 11.3 km/h 57% 0 mm 160.0 W/m2
08:06 11.6 °C 2.6 °C 1018.8 hPa NNE 9.7 km/h 11.3 km/h 54% 0 mm 197.0 W/m2
08:09 11.9 °C 2.1 °C 1018.8 hPa NNE 9.7 km/h 11.3 km/h 51% 0 mm 216.0 W/m2
08:17 12.2 °C 2.4 °C 1018.8 hPa North 11.1 km/h 14.5 km/h 51% 0 mm 230.0 W/m2
08:20 12.4 °C 2.8 °C 1018.5 hPa NNW 7.9 km/h 11.3 km/h 52% 0 mm 244.0 W/m2
08:32 12.7 °C 3.6 °C 1018.8 hPa NNW 9.7 km/h 14.5 km/h 54% 0 mm 272.0 W/m2
08:42 13.1 °C 4.3 °C 1018.8 hPa NNW 11.1 km/h 14.5 km/h 55% 0 mm 299.0 W/m2
08:45 13.2 °C 4.4 °C 1018.8 hPa NW 11.1 km/h 17.7 km/h 55% 0 mm 309.0 W/m2
08:57 13.2 °C 4.4 °C 1018.8 hPa NW 11.1 km/h 17.7 km/h 55% 0 mm 323.0 W/m2
09:06 13.6 °C 4.7 °C 1019.2 hPa NW 6.4 km/h 17.7 km/h 55% 0 mm 362.0 W/m2
09:11 13.7 °C 4.6 °C 1019.2 hPa NW 7.9 km/h 16.1 km/h 54% 0 mm 374.0 W/m2
09:15 14 °C 4.6 °C 1019.2 hPa NW 7.9 km/h 9.7 km/h 53% 0 mm 387.0 W/m2
09:25 14.5 °C 4.2 °C 1019.2 hPa NW 4.7 km/h 8 km/h 50% 0 mm 408.0 W/m2
09:35 15.1 °C 4.2 °C 1019.2 hPa NW 9.7 km/h 12.9 km/h 48% 0 mm 431.0 W/m2
09:45 15.4 °C 3.8 °C 1019.2 hPa NW 9.7 km/h 12.9 km/h 46% 0 mm 454.0 W/m2
09:58 16 °C 4.1 °C 1019.5 hPa NW 11.1 km/h 12.9 km/h 45% 0 mm 473.0 W/m2
13:59 19.9 °C 0.8 °C 1017.5 hPa SSW 13 km/h 16.1 km/h 28% 0 mm 466.0 W/m2
14:06 20.1 °C 1 °C 1017.5 hPa SSW 17.7 km/h 17.7 km/h 28% 0 mm 459.0 W/m2
14:19 20.2 °C 0.6 °C 1017.5 hPa SSW 17.7 km/h 17.7 km/h 27% 0 mm 436.0 W/m2
14:33 20.4 °C 0.2 °C 1017.5 hPa SSW 17.7 km/h 22.5 km/h 26% 0 mm 401.0 W/m2
14:42 20.6 °C 0.4 °C 1017.5 hPa SSW 14.3 km/h 20.9 km/h 26% 0 mm 376.0 W/m2
14:54 20.6 °C 0.4 °C 1017.8 hPa SSW 19.5 km/h 25.7 km/h 26% 0 mm 341.0 W/m2
15:06 20.4 °C -0.3 °C 1017.8 hPa SSW 14.3 km/h 22.5 km/h 25% 0 mm 311.0 W/m2
15:14 20.3 °C 1.2 °C 1017.8 hPa SSW 16.3 km/h 22.5 km/h 28% 0 mm 287.0 W/m2
15:24 20.2 °C 1.6 °C 1017.8 hPa SSW 24.1 km/h 25.7 km/h 29% 0 mm 260.0 W/m2
15:29 20.1 °C 1.5 °C 1017.8 hPa SSW 14.3 km/h 22.5 km/h 29% 0 mm 241.0 W/m2
15:34 20 °C 1.4 °C 1018.2 hPa SSW 19.5 km/h 24.1 km/h 29% 0 mm 230.0 W/m2
15:39 19.9 °C 1.3 °C 1018.2 hPa SSW 16.3 km/h 22.5 km/h 29% 0 mm 214.0 W/m2
15:49 19.8 °C 0.8 °C 1018.2 hPa SSW 19.5 km/h 22.5 km/h 28% 0 mm 178.0 W/m2
15:56 19.7 °C 0.7 °C 1018.2 hPa SSW 22.7 km/h 24.1 km/h 28% 0 mm 160.0 W/m2
16:01 19.6 °C 0.6 °C 1018.2 hPa SSW 20.9 km/h 24.1 km/h 28% 0 mm 141.0 W/m2
16:07 19.4 °C -0.1 °C 1018.5 hPa South 13 km/h 25.7 km/h 27% 0 mm 125.0 W/m2
16:20 19.3 °C -0.2 °C 1018.5 hPa South 13 km/h 22.5 km/h 27% 0 mm 93.0 W/m2
16:34 18.8 °C -0.6 °C 1018.8 hPa SSW 22.7 km/h 24.1 km/h 27% 0 mm 51.0 W/m2
16:48 18.3 °C 0.4 °C 1018.8 hPa SSW 20.9 km/h 24.1 km/h 30% 0 mm 14.0 W/m2
17:00 17.9 °C 1 °C 1018.8 hPa SSW 14.3 km/h 19.3 km/h 32% 0 mm 11.0 W/m2
17:15 17.4 °C 1 °C 1019.2 hPa SSW 14.3 km/h 19.3 km/h 33% 0 mm 0.0 W/m2
17:29 16.9 °C 1.3 °C 1019.2 hPa SSW 11.1 km/h 17.7 km/h 35% 0 mm 0.0 W/m2
17:40 16.7 °C 1.9 °C 1019.2 hPa SSW 17.7 km/h 19.3 km/h 37% 0 mm 0.0 W/m2
17:53 16.2 °C 1.9 °C 1019.5 hPa SSW 13 km/h 17.7 km/h 38% 0 mm 0.0 W/m2
18:30 15.2 °C 2 °C 1020.2 hPa SSW 13 km/h 14.5 km/h 41% 0 mm 0.0 W/m2
18:45 14.7 °C 1.6 °C 1020.2 hPa SSW 11.1 km/h 12.9 km/h 41% 0 mm 0.0 W/m2
19:30 13.6 °C 2.5 °C 1020.5 hPa SSW 7.9 km/h 9.7 km/h 47% 0 mm 0.0 W/m2
20:11 12.8 °C 2.9 °C 1020.9 hPa SSW 9.7 km/h 9.7 km/h 51% 0 mm 0.0 W/m2
20:22 12.3 °C 3 °C 1020.9 hPa SSW 7.9 km/h 9.7 km/h 53% 0 mm 0.0 W/m2
20:33 12.2 °C 2.4 °C 1020.9 hPa SSW 7.9 km/h 8 km/h 51% 0 mm 0.0 W/m2
20:42 11.4 °C 2.9 °C 1020.9 hPa SSW 4.7 km/h 6.4 km/h 56% 0 mm 0.0 W/m2
20:47 11.2 °C 2.7 °C 1020.9 hPa Calm     56% 0 mm 0.0 W/m2
20:52 11 °C 2.6 °C 1020.9 hPa Calm     56% 0 mm 0.0 W/m2
20:58 10.8 °C 2.6 °C 1020.9 hPa Calm     57% 0 mm 0.0 W/m2
21:03 10.7 °C 2.5 °C 1020.9 hPa Calm     57% 0 mm 0.0 W/m2
21:08 10.4 °C 2.5 °C 1020.9 hPa Calm     58% 0 mm 0.0 W/m2
21:13 10.2 °C 2.3 °C 1020.9 hPa Calm     58% 0 mm 0.0 W/m2
21:24 10.1 °C 2.7 °C 1020.9 hPa Calm     60% 0 mm 0.0 W/m2
21:29 10.1 °C 2.7 °C 1020.9 hPa Calm     60% 0 mm 0.0 W/m2
21:35 10 °C 2.4 °C 1020.9 hPa Calm     59% 0 mm 0.0 W/m2
21:40 9.7 °C 2.3 °C 1020.9 hPa Calm     60% 0 mm 0.0 W/m2
21:45 9.4 °C 2.3 °C 1020.9 hPa Calm     61% 0 mm 0.0 W/m2
21:51 9.3 °C 2.4 °C 1020.9 hPa Calm     62% 0 mm 0.0 W/m2
21:56 9 °C 2.3 °C 1020.9 hPa Calm     63% 0 mm 0.0 W/m2
22:11 8.9 °C 2.7 °C 1021.2 hPa Calm     65% 0 mm 0.0 W/m2
22:21 9.2 °C 2.7 °C 1020.9 hPa Calm     64% 0 mm 0.0 W/m2
22:26 9.1 °C 2.2 °C 1020.9 hPa Calm     62% 0 mm 0.0 W/m2
22:31 8.9 °C 1.8 °C 1020.9 hPa Calm     61% 0 mm 0.0 W/m2
22:37 8.5 °C 1.9 °C 1021.2 hPa Calm     63% 0 mm 0.0 W/m2
22:42 8.3 °C 1.9 °C 1020.9 hPa Calm     64% 0 mm 0.0 W/m2
22:47 8 °C 1.8 °C 1020.9 hPa Calm     65% 0 mm 0.0 W/m2
22:52 7.7 °C 1.5 °C 1020.9 hPa Calm     65% 0 mm 0.0 W/m2
23:02 7.4 °C 1.9 °C 1020.9 hPa Calm     68% 0 mm 0.0 W/m2
23:07 7.3 °C 1.8 °C 1021.2 hPa Calm     68% 0 mm 0.0 W/m2
23:13 7.2 °C 1.7 °C 1021.2 hPa Calm     68% 0 mm 0.0 W/m2
23:19 7.2 °C 1.7 °C 1021.2 hPa Calm     68% 0 mm 0.0 W/m2
23:29 7.3 °C 1.4 °C 1021.2 hPa Calm     66% 0 mm 0.0 W/m2
23:39 7 °C 1.7 °C 1021.2 hPa Calm     69% 0 mm 0.0 W/m2
23:49 7.5 °C 2.2 °C 1021.2 hPa Calm     69% 0 mm 0.0 W/m2
23:54 7.6 °C 2.1 °C 1021.6 hPa Calm     68% 0 mm 0.0 W/m2
23:59 7.4 °C 1.7 °C 1021.6 hPa Calm     67% 0 mm 0.0 W/m2
Canyon Roadhouse, Fishriver Canyon, Namibia
Compliments of Weather Underground - 2.5 mb